701  
ASUS43 KFGF 221731  
RWRFGF  
PRAIRIE TO PINES WEATHER ROUNDUP  
NATIONAL WEATHER SERVICE EASTERN NORTH DAKOTA/GRAND FORKS ND  
1100 AM CST TUE JAN 22 2019  
 
**SATELLITE DATA USED TO AUGMENT SKY COVER AT AUTOMATED STATIONS**  
***** WEATHER ACROSS EASTERN NORTH DAKOTA *****  
 
CITY SKY/WX TMP DP RH WIND PRES REMARKS
 
GRAND FORKS LGT SNOW 12 7 80 NW14 30.10S WCI -3  
GRAND FRKS AFB LGT SNOW 12 9 85 N9 30.12R WCI 0  
GRAND FRKS NWS N/A 13 11 93 NW10 30.06R WCI 0  
DEVILS LAKE FLURRIES 12 8 84 N17 30.09S WCI -5  
FARGO CLOUDY 13 8 81 NW8 30.11R HAZE WCI 2  
WAHPETON ARPT CLOUDY 14 9 79 NW8 30.11R WCI 3  

 
 
***** WEATHER ACROSS CENTRAL AND WESTERN NORTH DAKOTA *****  
 
CITY SKY/WX TMP DP RH WIND PRES REMARKS
 
BISMARCK FAIR 16 8 71 NW10G22 30.17R WCI 4  
MINOT FAIR 12 5 73 W14 30.14R WCI -3  
JAMESTOWN FLURRIES 14 10 84 NW17 30.07S WCI -3  
MINOT AFB FAIR 8 3 80 NW10 30.13R WCI -6  
GARRISON N/A 13 8 81 NW10 30.14R WCI 0  
WILLISTON CLOUDY 22 16 78 SW8 30.14F WCI 12  
DICKINSON CLOUDY 22 17 81 NW16 30.12R WCI 8  
HETTINGER CLOUDY 20 16 84 NW20 30.15R WCI 4  

 
 
***** OTHER AIRPORT OBSERVATIONS IN OUR AREA *****  
 
CITY SKY/WX TMP DP RH WIND PRES REMARKS
 
WALHALLA N/A 14 14 100 NW13G18 30.10S WCI 0  
GRAFTON AIRPOR CLOUDY 12 10 92 NW8 30.12S FOG WCI 1  
VALLEY CITY AR N/A N/A N/A N/A MISG N/A  
CANDO FAIR 16 10 79 NW13 30.12R WCI 2  
CAVALIER APRT CLOUDY 12 9 85 NW16 30.09S FOG WCI -4  
GWINNER N/A 12 9 85 NW9 30.10R WCI 0  
ROLLA CLOUDY 10 7 85 NW13 30.08R WCI -5  
***** THE ABOVE OBSERVATIONS ARE NON NWS ARE NOT QUALITY  
CONTROLLED AND MAY MIS-REPORT RAIN FOR SNOW...  

 
 
***** WEATHER ACROSS NORTHERN MINNESOTA *****  
 
CITY SKY/WX TMP DP RH WIND PRES REMARKS
 
FLAG ISLAND CLOUDY 12 7 79 NW9 30.03R WCI 0  
WARROAD LGT SNOW 12 9 85 W6 30.05S WCI 3  
ROSEAU LGT SNOW 12 9 85 W5 30.05S WCI 4  
HALLOCK LGT SNOW 12 10 92 NW8 30.09S WCI 1  
THF RVR FALLS LGT SNOW 11 7 84 W7 30.07S FOG WCI 0  
BAUDETTE CLOUDY 12 6 77 NW9 30.02S WCI 0  
WASKISH FLURRIES 10 9 92 W5 30.04R WCI 2  
CROOKSTON NOT AVBL  
STEPHEN NDAWN N/A 10 9 92 NW9 N/A WCI -2  
GREENBUSH NDAW N/A 10 9 92 W5 N/A WCI 2  

 
***** WEATHER ACROSS CENTRAL AND WEST MINNESOTA *****  
 
CITY SKY/WX TMP DP RH WIND PRES REMARKS
 
FOSSTON FLURRIES 10 5 79 W7 30.06R WCI 0  
BEMIDJI FLURRIES 12 7 79 W8 30.02S WCI 1  
PARK RAPIDS FAIR 9 6 88 NW5 30.02R WCI 1  
ELBOW LAKE FAIR 11 7 83 W5 30.07R WCI 3  
WADENA FAIR 12 9 85 NW5 30.03S WCI 4  
DETROIT LAKES LGT SNOW 14 10 85 NW9 30.05S WCI 2  
MOORHEAD LGT SNOW 12 7 79 NW10 30.11S WCI -1  
FERGUS FALLS FLURRIES 12 9 85 NW8 30.09R WCI 1  
MORRIS MN FAIR 10 3 72 NW7 30.08R WCI 0  
STAPLES FAIR 10 9 92 W3 30.04R  

 
***** WEATHER ELSEWHERE ACROSS MINNESOTA *****  
 
CITY SKY/WX TMP DP RH WIND PRES REMARKS
 
DULUTH FAIR 15 8 73 W8 29.99S WCI 4  
INTRNTL FALLS CLOUDY 13 8 81 W8 30.02F WCI 2  
ELY FLURRIES 16 9 73 W5 29.97F WCI 9  
CLOQUET FLURRIES 16 9 73 SW6 30.00F WCI 7  
WHEATON FAIR 12 9 85 NW9 30.12R WCI 0  
BRAINERD FAIR 15 9 76 NW3 30.04R  
HIBBING FAIR 13 8 81 W5 30.00S WCI 5  
ALEXANDRIA FAIR 17 8 67 NW5 30.04R WCI 10  
SAINT CLOUD CLOUDY 16 11 80 W3 30.04S HAZE  
MINNEAPOLIS FLURRIES 18 14 84 CALM 30.03F  

 
 
***** WEATHER ACROSS SOUTH DAKOTA *****  
 
CITY SKY/WX TMP DP RH WIND PRES REMARKS
 
SIOUX FALLS PTSUNNY 17 11 77 N18G26 30.04R WCI 1  
BROOKINGS FAIR 13 8 81 N13 30.03R WCI -2  
WATERTOWN CLOUDY 11 6 81 NW15 30.03R WCI -5  
HURON MIX PCPN 13 7 77 N20 30.11R WCI -5  
SISSETON N/A 11 7 84 NW14 30.09R WCI -5  
ABERDEEN LGT SNOW 13 8 81 N13 30.13R WCI -2  
MITCHELL CLOUDY 13 6 74 N21 30.12R WCI -5  
PIERRE LGT SNOW 17 14 88 NW14 30.17R FOG WCI 3  
MOBRIDGE LGT SNOW 20 12 71 N18G28 30.11R WCI 5  
RAPID CITY FAIR 24 16 71 N21G35 30.13R WCI 9  

 
 
***** SOME WEATHER IN NEARBY STATES *****  
 
CITY SKY/WX TMP DP RH WIND PRES REMARKS
 
GLASGOW MT FAIR 21 17 84 S7 30.10F WCI 12  
GREAT FALLS MT FAIR 26 19 74 SW25 30.07F WCI 11  
CHEYENNE WY LGT SNOW 21 17 84 N18G36 30.06R FOG WCI 6  
SCOTTSBLUFF NE CLOUDY 27 20 75 N21 30.13R WCI 13  
OMAHA NE CLOUDY 25 20 81 N21G28 29.97R WCI 11  
DES MOINES IA CLOUDY 27 26 96 NE6 29.93R FOG WCI 20  
DAVENPORT IA CLOUDY 27 26 96 S7 29.99F FOG WCI 19  
CHICAGO IL FRZ DRZL 23 21 92 S12 30.08F FOG WCI 12  
EAU CLAIRE WI CLOUDY 15 11 83 SE5 30.04R FOG WCI 8  
LA CROSSE WI LGT SNOW 19 16 88 CALM 30.04F FOG  

 
 
***** SOME NATIONAL WEATHER *****  
 
CITY SKY/WX TMP DP RH WIND PRES REMARKS
 
LA GUARDIA NY PTSUNNY 24 -1 33 NW10 30.64F WCI 14  
RALEIGH NC FAIR 32 2 27 CALM 30.70F  
ATLANTA GA CLOUDY 39 8 27 E13 30.51F  
NEW ORLEANS LA PTSUNNY 68 54 60 SE18G26 30.17F  
OKLAHOMA CITY CLOUDY 54 49 83 S17 29.77S  
ALBUQUERQUE NM FLURRIES 33 26 75 N3 29.93R  
SALT LAKE CITY FAIR 25 16 68 SW5 30.36R WCI 19  
LOS ANGELES CA FAIR 59 25 27 N7 30.25R  
BOISE ID FAIR 27 21 78 CALM 30.46S  
SEATTLE WA CLOUDY 45 35 68 S14 30.34F  

 
 
*** WEATHER ACROSS MANITOBA...SASKATCHEWAN AND ONTARIO ***  
***ONTARIO***  
 
CITY SKY/WX TMP DP RH WIND PRES REMARKS
 
GERALDTON LGT SNOW 18 14 86 CALM 29.98F VSB 1  
THUNDER BAY LGT SNOW 19 16 86 SW7 29.99F WCI 10  
SIOUX LOOKOUT LGT SNOW 10 5 79 NW3 29.97F  
TORONTO CLOUDY 18 10 73 S9 30.51F WCI 6  
BIG TROUT LK FLURRIES 5 1 85 W7 29.95F WCI -7  
PICKLE LAKE FLURRIES 10 5 79 SW8 29.94F WCI -1  
DRYDEN LGT SNOW 10 5 79 W5 29.96F WCI 2  
KENORA LGT SNOW 10 7 85 W7 30.00R WCI 0  

 
*** MANITOBA***  
 
CITY SKY/WX TMP DP RH WIND PRES REMARKS
 
BRANDON MOSUNNY 1 -4 78 SW7 30.09F WCI -11  
DAUPHIN SUNNY 7 1 78 W10 30.09S WCI -8  
ISLAND LAKE FLURRIES 3 -4 72 W9 29.99R WCI -11  
PILOT MOUND N/A 10 5 79 NW7 N/A WCI 0  
THE PAS CLOUDY 5 -2 72 CALM 30.04F HAZE  
THOMPSON MOSUNNY -9 -13 84 W5 29.99S WCI -21  
WINNIPEG FLURRIES 12 7 79 NW10 30.10R WCI -1  
LYNN LAKE MOCLDY -9 -13 84 W8 29.92F WCI -26  
CHURCHILL CRYSTALS -24 -31 69 W5 30.02F WCI -38  
GILLAM MOSUNNY -8 -13 77 S2 29.98S  

 
***SASKATCHEWAN***  
 
CITY SKY/WX TMP DP RH WIND PRES REMARKS
 
ESTEVAN CLOUDY 12 10 92 SW5 30.09F FOG WCI 4  
KINDERSLEY PTSUNNY 12 10 92 S23 29.89F WCI -7  
LLOYDMINSTER PTSUNNY 14 9 79 N6 29.83S WCI 5  
PRINCE ALBERT FLURRIES 12 7 79 SE5 29.96F WCI 4  
REGINA FOG 14 12 92 SE10 30.02F VSB 1 WCI 1  
YORKTON CLOUDY 9 3 78 S9 30.02F WCI -5  
N. BATTLEFORD SUNNY 12 10 92 S3 29.91S  
LA RONGE LGT SNOW 0 -4 85 E5 29.98R VSB 1 WCI -10  
SASKATOON PTSUNNY 14 12 92 SW8 29.94F WCI 3  
SWIFT CURRENT PTSUNNY 21 14 73 SW15 29.92F WCI 8  

 
NOTE: THESE ARE AUTOMATED STATIONS WITH LIMITED QUALITY CONTROL  
"FAIR" INDICATES FEW OR NO CLOUDS BELOW 12,000 FEET WITH NO  
SIGNIFICANT WEATHER AND/OR S TO VISIBILITY
.  
SKY/WX - SKY CONDITION AND SIGNIFICANT WEATHER.  
TMP - AIR TEMPERATURE. DP - DEWPOINT TEMPERATURE.  
RH - RELATIVE HUMIDITY. PRES - PRESSURE.  
HX - HEAT INDEX. WCI - WIND CHILL INDEX.  
$  
 
 
CLICK HERE TO GO TO PREVIOUS BULLETINS.

The Nexlab ND Page
The Nexlab MN Page Main Text Page